When you browse on this site, cookies collect data to enhance your experience and personalize the content and advertising you see.
Visit our Privacy Policy to learn more. By continuing to use the site, you agree to this use of cookies and data.
  • In Latvia
  • List of Countries
  • For 7 days
  • Water Temperature
  • Weather Map
  • Weather Widgets
  • user-avatar
    Login

    Hourly Weather Przeworsk

    Today, 2 June, Tuesday

    Time Temperature Precipitation Wind Pressure Humidity
    00:00 +7°C° 0 mm 2 mps 745 mmHg 91%
    01:00 +7°C° 0 mm 2 mps 745 mmHg 92%
    02:00 +6°C° 0 mm 2 mps 744 mmHg 92%
    03:00 +6°C° 0 mm 2 mps 744 mmHg 93%
    04:00 +6°C° 0 mm 2 mps 743 mmHg 93%
    05:00 +6°C° 0 mm 2 mps 743 mmHg 94%
    06:00 +8°C° 0 mm 3 mps 743 mmHg 90%
    07:00 +8°C° 0 mm 4 mps 743 mmHg 85%
    08:00 +10°C° 0 mm 5 mps 743 mmHg 81%
    09:00 +12°C° 0.2 mm 5 mps 743 mmHg 76%
    10:00 +13°C° 0.2 mm 6 mps 742 mmHg 71%
    11:00 +14°C° 0.2 mm 6 mps 742 mmHg 66%
    12:00 +14°C° 0.4 mm 6 mps 742 mmHg 68%
    13:00 +13°C° 0.4 mm 6 mps 742 mmHg 71%
    14:00 +12°C° 0.4 mm 7 mps 742 mmHg 74%
    15:00 +11°C° 0.3 mm 6 mps 741 mmHg 79%
    16:00 +10°C° 0.3 mm 5 mps 741 mmHg 83%
    17:00 +11°C° 0.3 mm 4 mps 740 mmHg 88%
    18:00 +11°C° 0.1 mm 3 mps 740 mmHg 89%
    19:00 +10°C° 0.1 mm 3 mps 740 mmHg 89%
    20:00 +10°C° 0.1 mm 3 mps 740 mmHg 89%
    21:00 +10°C° 0.1 mm 3 mps 740 mmHg 90%
    22:00 +10°C° 0.1 mm 4 mps 739 mmHg 90%
    23:00 +10°C° 0.1 mm 4 mps 739 mmHg 91%

    Tomorrow, 3 June, Wednesday

    Time Temperature Precipitation Wind Pressure Humidity
    00:00 +10°C° 0.2 mm 4 mps 739 mmHg 92%
    01:00 +8°C° 0.2 mm 4 mps 739 mmHg 93%
    02:00 +8°C° 0.2 mm 4 mps 738 mmHg 94%
    03:00 +8°C° 0.2 mm 4 mps 738 mmHg 94%
    04:00 +8°C° 0.2 mm 4 mps 738 mmHg 94%
    05:00 +7°C° 0.2 mm 4 mps 738 mmHg 94%
    06:00 +8°C° 0.5 mm 4 mps 738 mmHg 94%
    07:00 +8°C° 0.5 mm 4 mps 738 mmHg 93%
    08:00 +10°C° 0.5 mm 3 mps 738 mmHg 93%
    09:00 +10°C° 0.5 mm 4 mps 738 mmHg 90%
    10:00 +11°C° 0.5 mm 4 mps 738 mmHg 87%
    11:00 +12°C° 0.5 mm 4 mps 737 mmHg 84%
    12:00 +13°C° 0.2 mm 4 mps 737 mmHg 81%
    13:00 +13°C° 0.2 mm 4 mps 737 mmHg 78%
    14:00 +14°C° 0.2 mm 4 mps 737 mmHg 75%
    15:00 +14°C° 0.3 mm 4 mps 737 mmHg 74%
    16:00 +14°C° 0.3 mm 4 mps 736 mmHg 74%
    17:00 +16°C° 0.3 mm 3 mps 736 mmHg 73%
    18:00 +14°C° 0.2 mm 3 mps 736 mmHg 78%
    19:00 +14°C° 0.2 mm 2 mps 736 mmHg 82%
    20:00 +13°C° 0.2 mm 2 mps 736 mmHg 87%
    21:00 +12°C° 0 mm 2 mps 736 mmHg 88%
    22:00 +10°C° 0 mm 2 mps 736 mmHg 89%
    23:00 +9°C° 0 mm 2 mps 736 mmHg 91%

    Day after tomorrow, 4 June, Thursday

    Time Temperature Precipitation Wind Pressure Humidity
    00:00 +9°C° 0 mm 2 mps 736 mmHg 91%
    01:00 +8°C° 0 mm 2 mps 736 mmHg 92%
    02:00 +8°C° 0 mm 2 mps 736 mmHg 92%
    03:00 +8°C° 0 mm 2 mps 736 mmHg 92%
    04:00 +8°C° 0 mm 1 mps 735 mmHg 91%
    05:00 +8°C° 0 mm 1 mps 735 mmHg 91%
    06:00 +10°C° 0 mm 1 mps 735 mmHg 87%
    07:00 +12°C° 0 mm 1 mps 735 mmHg 84%
    08:00 +14°C° 0 mm 1 mps 735 mmHg 80%
    09:00 +15°C° 0.1 mm 1 mps 735 mmHg 76%
    10:00 +17°C° 0.1 mm 2 mps 735 mmHg 73%
    11:00 +18°C° 0.1 mm 2 mps 735 mmHg 69%
    12:00 +19°C° 0.1 mm 3 mps 735 mmHg 66%
    13:00 +19°C° 0.1 mm 3 mps 734 mmHg 64%
    14:00 +20°C° 0.1 mm 4 mps 734 mmHg 61%
    15:00 +20°C° 0.1 mm 3 mps 734 mmHg 64%
    16:00 +20°C° 0.1 mm 3 mps 734 mmHg 68%
    17:00 +20°C° 0.1 mm 3 mps 734 mmHg 71%
    18:00 +19°C° 0.7 mm 3 mps 733 mmHg 76%
    19:00 +18°C° 0.7 mm 2 mps 733 mmHg 82%
    20:00 +17°C° 0.7 mm 2 mps 733 mmHg 87%
    21:00 +16°C° 0.7 mm 2 mps 733 mmHg 89%
    22:00 +16°C° 0.7 mm 3 mps 733 mmHg 92%
    23:00 +14°C° 0.7 mm 3 mps 733 mmHg 94%

    5 June, Friday

    Time Temperature Precipitation Wind Pressure Humidity
    00:00 +14°C° 0.1 mm 3 mps 733 mmHg 93%
    01:00 +15°C° 0.1 mm 4 mps 732 mmHg 92%
    02:00 +15°C° 0.1 mm 5 mps 732 mmHg 91%
    03:00 +15°C° 0 mm 5 mps 732 mmHg 89%
    04:00 +15°C° 0 mm 6 mps 732 mmHg 88%
    05:00 +15°C° 0 mm 6 mps 732 mmHg 86%
    06:00 +16°C° 0 mm 6 mps 732 mmHg 84%
    07:00 +17°C° 0 mm 6 mps 732 mmHg 81%
    08:00 +17°C° 0 mm 6 mps 732 mmHg 79%
    09:00 +18°C° 0 mm 7 mps 732 mmHg 76%
    10:00 +21°C° 0 mm 7 mps 733 mmHg 72%
    11:00 +22°C° 0 mm 8 mps 733 mmHg 69%
    12:00 +22°C° 0 mm 8 mps 733 mmHg 68%
    13:00 +23°C° 0 mm 8 mps 733 mmHg 67%
    14:00 +24°C° 0 mm 8 mps 734 mmHg 65%
    15:00 +23°C° 0.2 mm 8 mps 734 mmHg 68%
    16:00 +23°C° 0.2 mm 7 mps 734 mmHg 71%
    17:00 +22°C° 0.2 mm 7 mps 734 mmHg 74%
    18:00 +21°C° 0 mm 6 mps 733 mmHg 76%
    19:00 +20°C° 0 mm 5 mps 733 mmHg 78%
    20:00 +19°C° 0 mm 4 mps 733 mmHg 81%
    21:00 +19°C° 0 mm 4 mps 733 mmHg 79%
    22:00 +18°C° 0 mm 4 mps 734 mmHg 78%
    23:00 +17°C° 0 mm 4 mps 734 mmHg 77%

    6 June, Saturday

    Time Temperature Precipitation Wind Pressure Humidity
    00:00 +17°C° 0.2 mm 4 mps 734 mmHg 80%
    01:00 +17°C° 0.2 mm 4 mps 734 mmHg 83%
    02:00 +15°C° 0.2 mm 4 mps 734 mmHg 86%
    03:00 +15°C° 0.5 mm 4 mps 734 mmHg 89%
    04:00 +14°C° 0.5 mm 5 mps 734 mmHg 92%
    05:00 +13°C° 0.5 mm 5 mps 735 mmHg 95%
    06:00 +12°C° 0.7 mm 5 mps 735 mmHg 95%
    07:00 +12°C° 0.7 mm 4 mps 736 mmHg 95%
    08:00 +12°C° 0.7 mm 4 mps 736 mmHg 95%
    09:00 +12°C° 0.3 mm 3 mps 737 mmHg 94%
    10:00 +12°C° 0.3 mm 3 mps 738 mmHg 93%
    11:00 +14°C° 0.3 mm 2 mps 738 mmHg 92%
    12:00 +16°C° 0 mm 2 mps 739 mmHg 84%
    13:00 +17°C° 0 mm 3 mps 739 mmHg 75%
    14:00 +19°C° 0 mm 3 mps 739 mmHg 67%
    15:00 +20°C° 0 mm 3 mps 739 mmHg 65%
    16:00 +21°C° 0 mm 2 mps 739 mmHg 64%
    17:00 +21°C° 0 mm 2 mps 739 mmHg 62%
    18:00 +20°C° 0 mm 2 mps 740 mmHg 69%
    19:00 +19°C° 0 mm 2 mps 740 mmHg 75%
    20:00 +17°C° 0 mm 2 mps 740 mmHg 81%
    21:00 +16°C° 0 mm 2 mps 741 mmHg 83%
    22:00 +15°C° 0 mm 2 mps 741 mmHg 85%
    23:00 +15°C° 0 mm 2 mps 742 mmHg 87%

    7 June, Sunday

    Time Temperature Precipitation Wind Pressure Humidity
    00:00 +14°C° 0 mm 2 mps 742 mmHg 88%
    01:00 +14°C° 0 mm 2 mps 742 mmHg 89%
    02:00 +13°C° 0 mm 2 mps 742 mmHg 90%
    03:00 +13°C° 0 mm 2 mps 742 mmHg 91%
    04:00 +13°C° 0 mm 2 mps 743 mmHg 91%
    05:00 +13°C° 0 mm 2 mps 743 mmHg 91%
    06:00 +15°C° 0 mm 2 mps 743 mmHg 87%
    07:00 +17°C° 0 mm 2 mps 743 mmHg 83%
    08:00 +19°C° 0 mm 2 mps 744 mmHg 79%
    09:00 +20°C° 0 mm 3 mps 744 mmHg 74%
    10:00 +22°C° 0 mm 3 mps 744 mmHg 68%
    11:00 +24°C° 0 mm 3 mps 744 mmHg 63%
    12:00 +25°C° 0.1 mm 3 mps 743 mmHg 61%
    13:00 +25°C° 0.1 mm 3 mps 743 mmHg 59%
    14:00 +26°C° 0.1 mm 3 mps 743 mmHg 57%
    15:00 +25°C° 0.4 mm 3 mps 743 mmHg 62%
    16:00 +25°C° 0.4 mm 3 mps 742 mmHg 67%
    17:00 +25°C° 0.4 mm 3 mps 742 mmHg 72%
    18:00 +22°C° 0.1 mm 3 mps 742 mmHg 76%
    19:00 +21°C° 0.1 mm 3 mps 742 mmHg 81%
    20:00 +19°C° 0.1 mm 3 mps 742 mmHg 86%
    21:00 +19°C° 0 mm 3 mps 742 mmHg 88%
    22:00 +18°C° 0 mm 3 mps 742 mmHg 89%
    23:00 +17°C° 0 mm 3 mps 742 mmHg 91%
    Show more